Time,TemperatureF,DewpointF,PressureIn,WindDirection,WindDirectionDegrees,WindSpeedMPH,WindSpeedGustMPH,Humidity,HourlyPrecipIn,Conditions,Clouds,dailyrainin,SoftwareType,DateUTC
2013-01-10 00:00:00,50.6,35.8,30.10,NW,315,1.1,4.3,57,0.00,,,0.01,WUHU216HW,2013-01-10 05:00:00,
2013-01-10 00:01:00,50.6,35.8,30.11,WSW,248,2.0,4.3,57,0.00,,,0.00,WUHU216HW,2013-01-10 05:01:00,
2013-01-10 00:06:00,50.6,36.3,30.11,WSW,248,2.7,3.1,58,0.00,,,0.00,WUHU216HW,2013-01-10 05:06:00,
2013-01-10 00:11:00,50.2,36.5,30.11,WSW,248,0.7,3.1,59,0.00,,,0.00,WUHU216HW,2013-01-10 05:11:00,
2013-01-10 00:16:00,49.7,36.4,30.11,West,270,1.6,4.0,60,0.00,,,0.00,WUHU216HW,2013-01-10 05:16:00,
2013-01-10 00:21:00,49.3,36.1,30.11,NW,315,1.8,4.0,60,0.00,,,0.00,WUHU216HW,2013-01-10 05:21:00,
2013-01-10 00:26:00,49.3,35.7,30.11,WSW,248,2.7,3.4,59,0.00,,,0.00,WUHU216HW,2013-01-10 05:26:00,
2013-01-10 00:31:00,49.3,35.7,30.11,WNW,293,1.1,3.4,59,0.00,,,0.00,WUHU216HW,2013-01-10 05:31:00,
2013-01-10 00:36:00,49.3,35.7,30.11,SW,225,1.1,3.4,59,0.00,,,0.00,WUHU216HW,2013-01-10 05:36:00,
2013-01-10 00:41:00,49.3,35.7,30.12,SW,225,0.9,3.4,59,0.00,,,0.00,WUHU216HW,2013-01-10 05:41:00,
2013-01-10 00:46:00,49.1,35.9,30.12,WSW,248,1.3,3.4,60,0.00,,,0.00,WUHU216HW,2013-01-10 05:46:00,
2013-01-10 00:51:00,49.0,35.3,30.12,SW,225,1.3,2.7,59,0.00,,,0.00,WUHU216HW,2013-01-10 05:51:00,
2013-01-10 00:56:00,49.1,35.5,30.13,SW,225,2.9,2.9,59,0.00,,,0.00,WUHU216HW,2013-01-10 05:56:00,
2013-01-10 01:01:00,49.1,35.0,30.12,WSW,248,1.1,2.9,58,0.00,,,0.00,WUHU216HW,2013-01-10 06:01:00,
2013-01-10 01:06:00,49.1,35.0,30.13,WSW,248,0.7,3.6,58,0.00,,,0.00,WUHU216HW,2013-01-10 06:06:00,
2013-01-10 01:11:00,49.0,34.8,30.13,NNW,338,1.3,4.7,58,0.00,,,0.00,WUHU216HW,2013-01-10 06:11:00,
2013-01-10 01:16:00,49.0,35.3,30.12,SW,225,2.9,4.7,59,0.00,,,0.00,WUHU216HW,2013-01-10 06:16:00,
2013-01-10 01:21:00,49.1,35.0,30.13,WNW,293,1.8,3.4,58,0.00,,,0.00,WUHU216HW,2013-01-10 06:21:00,
2013-01-10 01:26:00,48.8,35.1,30.13,NNW,338,1.1,1.8,59,0.00,,,0.00,WUHU216HW,2013-01-10 06:26:00,
2013-01-10 01:31:00,48.4,34.8,30.13,West,270,1.3,2.9,59,0.00,,,0.00,WUHU216HW,2013-01-10 06:31:00,
2013-01-10 01:36:00,48.2,35.1,30.13,WSW,248,0.9,2.9,60,0.00,,,0.00,WUHU216HW,2013-01-10 06:36:00,
2013-01-10 01:41:00,47.7,34.6,30.13,NW,315,0.4,2.5,60,0.00,,,0.00,WUHU216HW,2013-01-10 06:41:00,
2013-01-10 01:46:00,47.2,34.4,30.14,WSW,248,0.9,2.5,61,0.00,,,0.00,WUHU216HW,2013-01-10 06:46:00,
2013-01-10 01:52:00,46.8,33.7,30.14,NW,315,1.1,2.5,60,0.00,,,0.00,WUHU216HW,2013-01-10 06:52:00,
2013-01-10 01:57:00,46.3,33.6,30.14,NNW,338,0.0,2.5,61,0.00,,,0.00,WUHU216HW,2013-01-10 06:57:00,
2013-01-10 02:02:00,45.7,33.4,30.14,NW,315,0.0,1.1,62,0.00,,,0.00,WUHU216HW,2013-01-10 07:02:00,
2013-01-10 02:07:00,45.4,33.1,30.14,West,270,0.0,1.8,62,0.00,,,0.00,WUHU216HW,2013-01-10 07:07:00,
2013-01-10 02:12:00,45.2,33.3,30.15,NNE,23,0.4,1.8,63,0.00,,,0.00,WUHU216HW,2013-01-10 07:12:00,
2013-01-10 02:17:00,44.8,32.9,30.15,West,270,0.0,0.4,63,0.00,,,0.00,WUHU216HW,2013-01-10 07:17:00,
2013-01-10 02:22:00,44.3,32.5,30.16,WSW,248,0.0,0.4,63,0.00,,,0.00,WUHU216HW,2013-01-10 07:22:00,
2013-01-10 02:27:00,43.9,32.1,30.16,West,270,0.0,0.4,63,0.00,,,0.00,WUHU216HW,2013-01-10 07:27:00,
2013-01-10 02:32:00,43.4,32.0,30.16,WNW,293,0.0,0.4,64,0.00,,,0.00,WUHU216HW,2013-01-10 07:32:00,
2013-01-10 02:37:00,42.8,31.9,30.16,West,270,0.0,1.1,65,0.00,,,0.00,WUHU216HW,2013-01-10 07:37:00,
2013-01-10 02:42:00,42.5,32.0,30.16,NW,315,0.2,1.1,66,0.00,,,0.00,WUHU216HW,2013-01-10 07:42:00,
2013-01-10 02:47:00,42.1,31.6,30.16,WNW,293,0.2,1.3,66,0.00,,,0.00,WUHU216HW,2013-01-10 07:47:00,
2013-01-10 02:52:00,42.1,32.0,30.17,NW,315,0.0,1.3,67,0.00,,,0.00,WUHU216HW,2013-01-10 07:52:00,
2013-01-10 02:57:00,42.1,32.0,30.17,NNW,338,0.0,0.4,67,0.00,,,0.00,WUHU216HW,2013-01-10 07:57:00,
2013-01-10 03:02:00,41.9,31.8,30.17,West,270,0.0,0.7,67,0.00,,,0.00,WUHU216HW,2013-01-10 08:02:00,
2013-01-10 03:07:00,41.9,31.8,30.17,South,180,0.0,3.6,67,0.00,,,0.00,WUHU216HW,2013-01-10 08:07:00,
2013-01-10 03:12:00,42.1,32.3,30.17,WNW,293,1.1,3.6,68,0.00,,,0.00,WUHU216HW,2013-01-10 08:12:00,
2013-01-10 03:16:00,42.7,32.9,30.17,NE,45,0.4,1.1,68,0.00,,,0.00,WUHU216HW,2013-01-10 08:16:00,
2013-01-10 03:21:00,42.7,32.5,30.17,North,0,0.0,0.4,67,0.00,,,0.00,WUHU216HW,2013-01-10 08:21:00,
2013-01-10 03:27:00,42.7,32.5,30.18,NW,315,0.0,0.4,67,0.00,,,0.00,WUHU216HW,2013-01-10 08:27:00,
2013-01-10 03:32:00,42.7,32.5,30.18,WSW,248,0.4,1.1,67,0.00,,,0.00,WUHU216HW,2013-01-10 08:32:00,
2013-01-10 03:37:00,42.8,32.2,30.17,West,270,2.7,2.7,66,0.00,,,0.00,WUHU216HW,2013-01-10 08:37:00,
2013-01-10 03:42:00,43.2,32.6,30.18,WNW,293,1.1,2.7,66,0.00,,,0.00,WUHU216HW,2013-01-10 08:42:00,
2013-01-10 03:47:00,43.4,32.4,30.17,North,0,0.4,1.6,65,0.00,,,0.00,WUHU216HW,2013-01-10 08:47:00,
2013-01-10 03:52:00,43.7,32.3,30.18,NW,315,0.9,3.1,64,0.00,,,0.00,WUHU216HW,2013-01-10 08:52:00,
2013-01-10 03:57:00,44.3,32.5,30.17,WNW,293,2.2,3.1,63,0.00,,,0.00,WUHU216HW,2013-01-10 08:57:00,
2013-01-10 04:02:00,44.6,32.9,30.18,NNW,338,1.8,2.9,63,0.00,,,0.00,WUHU216HW,2013-01-10 09:02:00,
2013-01-10 04:07:00,44.8,32.2,30.18,West,270,1.1,2.9,61,0.00,,,0.00,WUHU216HW,2013-01-10 09:07:00,
2013-01-10 04:12:00,45.0,32.4,30.18,SW,225,0.7,2.9,61,0.00,,,0.00,WUHU216HW,2013-01-10 09:12:00,
2013-01-10 04:17:00,44.6,32.0,30.18,WSW,248,1.1,2.5,61,0.00,,,0.00,WUHU216HW,2013-01-10 09:17:00,
2013-01-10 04:22:00,44.1,31.5,30.18,WSW,248,0.2,1.1,61,0.00,,,0.00,WUHU216HW,2013-01-10 09:22:00,
2013-01-10 04:27:00,43.9,31.3,30.18,WSW,248,0.9,1.1,61,0.00,,,0.00,WUHU216HW,2013-01-10 09:27:00,
2013-01-10 04:32:00,43.6,31.4,30.18,West,270,0.0,1.1,62,0.00,,,0.00,WUHU216HW,2013-01-10 09:32:00,
2013-01-10 04:37:00,43.2,31.1,30.18,West,270,0.4,1.1,62,0.00,,,0.00,WUHU216HW,2013-01-10 09:37:00,
2013-01-10 04:42:00,42.7,30.5,30.18,SSW,203,0.2,0.9,62,0.00,,,0.00,WUHU216HW,2013-01-10 09:42:00,
2013-01-10 04:47:00,42.1,30.4,30.18,NW,315,0.0,0.2,63,0.00,,,0.00,WUHU216HW,2013-01-10 09:47:00,
2013-01-10 04:52:00,41.6,29.9,30.18,NW,315,0.0,0.0,63,0.00,,,0.00,WUHU216HW,2013-01-10 09:52:00,
2013-01-10 04:57:00,41.0,29.4,30.18,NW,315,0.0,0.0,63,0.00,,,0.00,WUHU216HW,2013-01-10 09:57:00,
2013-01-10 05:02:00,40.7,29.4,30.18,WSW,248,0.0,0.0,64,0.00,,,0.00,WUHU216HW,2013-01-10 10:02:00,
2013-01-10 05:07:00,40.1,28.9,30.19,WSW,248,0.0,0.0,64,0.00,,,0.00,WUHU216HW,2013-01-10 10:07:00,
2013-01-10 05:12:00,39.6,28.4,30.19,SW,225,0.2,0.2,64,0.00,,,0.00,WUHU216HW,2013-01-10 10:12:00,
2013-01-10 05:17:00,39.2,28.0,30.19,SW,225,0.0,0.2,64,0.00,,,0.00,WUHU216HW,2013-01-10 10:17:00,
2013-01-10 05:22:00,38.9,28.0,30.19,West,270,0.2,0.2,65,0.00,,,0.00,WUHU216HW,2013-01-10 10:22:00,
2013-01-10 05:27:00,38.5,28.1,30.19,West,270,0.0,0.4,66,0.00,,,0.00,WUHU216HW,2013-01-10 10:27:00,
2013-01-10 05:32:00,38.2,27.7,30.20,West,270,0.0,0.0,66,0.00,,,0.00,WUHU216HW,2013-01-10 10:32:00,
2013-01-10 05:37:00,38.0,28.0,30.20,West,270,0.0,0.0,67,0.00,,,0.00,WUHU216HW,2013-01-10 10:37:00,
2013-01-10 05:42:00,37.6,27.6,30.20,West,270,0.0,0.0,67,0.00,,,0.00,WUHU216HW,2013-01-10 10:42:00,
2013-01-10 05:47:00,37.4,27.5,30.21,West,270,0.0,0.0,67,0.00,,,0.00,WUHU216HW,2013-01-10 10:47:00,
2013-01-10 05:52:00,37.1,27.2,30.21,West,270,0.0,0.0,67,0.00,,,0.00,WUHU216HW,2013-01-10 10:52:00,
2013-01-10 05:57:00,36.7,27.2,30.21,WNW,293,0.0,0.7,68,0.00,,,0.00,WUHU216HW,2013-01-10 10:57:00,
2013-01-10 06:02:00,36.4,27.2,30.21,WNW,293,0.0,0.7,69,0.00,,,0.00,WUHU216HW,2013-01-10 11:02:00,
2013-01-10 06:07:00,36.2,27.0,30.21,WSW,248,0.0,0.4,69,0.00,,,0.00,WUHU216HW,2013-01-10 11:07:00,
2013-01-10 06:12:00,36.0,27.2,30.21,WSW,248,0.0,0.4,70,0.00,,,0.00,WUHU216HW,2013-01-10 11:12:00,
2013-01-10 06:17:00,35.8,27.0,30.21,WNW,293,0.0,0.2,70,0.00,,,0.00,WUHU216HW,2013-01-10 11:17:00,
2013-01-10 06:22:00,35.6,27.2,30.21,West,270,0.0,0.2,71,0.00,,,0.00,WUHU216HW,2013-01-10 11:22:00,
2013-01-10 06:27:00,35.5,27.0,30.21,NW,315,0.0,0.4,71,0.00,,,0.00,WUHU216HW,2013-01-10 11:27:00,
2013-01-10 06:32:00,35.5,27.0,30.22,NNW,338,0.0,0.4,71,0.00,,,0.00,WUHU216HW,2013-01-10 11:32:00,
2013-01-10 06:37:00,35.5,27.0,30.22,NNW,338,0.0,0.2,71,0.00,,,0.00,WUHU216HW,2013-01-10 11:37:00,
2013-01-10 06:42:00,35.5,27.3,30.23,WSW,248,0.0,0.2,72,0.00,,,0.00,WUHU216HW,2013-01-10 11:42:00,
2013-01-10 06:47:00,35.3,27.1,30.23,WSW,248,0.0,0.4,72,0.00,,,0.00,WUHU216HW,2013-01-10 11:47:00,
2013-01-10 06:52:00,35.5,27.3,30.24,WNW,293,0.0,0.4,72,0.00,,,0.00,WUHU216HW,2013-01-10 11:52:00,
2013-01-10 06:57:00,35.5,27.3,30.24,WSW,248,0.0,0.2,72,0.00,,,0.00,WUHU216HW,2013-01-10 11:57:00,
2013-01-10 07:02:00,35.3,27.1,30.24,WSW,248,0.2,0.2,72,0.00,,,0.00,WUHU216HW,2013-01-10 12:02:00,
2013-01-10 07:07:00,35.3,27.1,30.24,NNW,338,0.0,0.7,72,0.00,,,0.00,WUHU216HW,2013-01-10 12:07:00,
2013-01-10 07:10:00,35.3,27.1,30.24,North,0,0.0,0.7,72,0.00,,,0.00,WUHU216HW,2013-01-10 12:10:00,
2013-01-10 07:12:00,35.3,27.1,30.24,North,0,0.2,0.7,72,0.00,,,0.00,WUHU216HW,2013-01-10 12:12:00,
2013-01-10 07:17:00,35.3,27.1,30.24,WNW,293,0.0,0.4,72,0.00,,,0.00,WUHU216HW,2013-01-10 12:17:00,
2013-01-10 07:22:00,35.1,26.9,30.25,WNW,293,0.0,0.4,72,0.00,,,0.00,WUHU216HW,2013-01-10 12:22:00,
2013-01-10 07:27:00,34.9,27.1,30.25,WNW,293,0.0,0.4,73,0.00,,,0.00,WUHU216HW,2013-01-10 12:27:00,
2013-01-10 07:32:00,34.9,27.1,30.26,SW,225,0.2,0.4,73,0.00,,,0.00,WUHU216HW,2013-01-10 12:32:00,
2013-01-10 07:38:00,34.9,27.1,30.26,SSW,203,0.0,0.4,73,0.00,,,0.00,WUHU216HW,2013-01-10 12:38:00,
2013-01-10 07:43:00,34.6,26.7,30.27,WNW,293,0.0,0.4,73,0.00,,,0.00,WUHU216HW,2013-01-10 12:43:00,
2013-01-10 07:48:00,34.6,26.7,30.27,NW,315,0.2,0.9,73,0.00,,,0.00,WUHU216HW,2013-01-10 12:48:00,
2013-01-10 07:53:00,34.9,27.1,30.27,WSW,248,1.1,1.1,73,0.00,,,0.00,WUHU216HW,2013-01-10 12:53:00,
2013-01-10 07:58:00,34.9,27.1,30.28,WNW,293,1.6,1.6,73,0.00,,,0.00,WUHU216HW,2013-01-10 12:58:00,
2013-01-10 08:03:00,35.3,27.5,30.28,West,270,0.4,1.6,73,0.00,,,0.00,WUHU216HW,2013-01-10 13:03:00,
2013-01-10 08:08:00,35.5,27.6,30.29,WNW,293,0.0,0.7,73,0.00,,,0.00,WUHU216HW,2013-01-10 13:08:00,
2013-01-10 08:13:00,35.6,27.8,30.29,NW,315,0.4,0.4,73,0.00,,,0.00,WUHU216HW,2013-01-10 13:13:00,
2013-01-10 08:18:00,36.0,28.2,30.29,WNW,293,0.4,0.4,73,0.00,,,0.00,WUHU216HW,2013-01-10 13:18:00,
2013-01-10 08:23:00,36.4,28.5,30.30,West,270,0.2,1.3,73,0.00,,,0.00,WUHU216HW,2013-01-10 13:23:00,
2013-01-10 08:28:00,37.1,29.3,30.30,SW,225,2.5,2.5,73,0.00,,,0.00,WUHU216HW,2013-01-10 13:28:00,
2013-01-10 08:33:00,37.8,29.6,30.30,WSW,248,0.4,2.5,72,0.00,,,0.00,WUHU216HW,2013-01-10 13:33:00,
2013-01-10 08:38:00,38.5,30.2,30.31,WSW,248,1.1,1.3,72,0.00,,,0.00,WUHU216HW,2013-01-10 13:38:00,
2013-01-10 08:43:00,39.1,30.4,30.31,SW,225,1.3,1.8,71,0.00,,,0.00,WUHU216HW,2013-01-10 13:43:00,
2013-01-10 08:48:00,40.1,31.1,30.31,WSW,248,2.0,2.0,70,0.00,,,0.00,WUHU216HW,2013-01-10 13:48:00,
2013-01-10 08:53:00,41.0,31.3,30.31,WNW,293,1.8,2.9,68,0.00,,,0.00,WUHU216HW,2013-01-10 13:53:00,
2013-01-10 08:58:00,41.8,31.6,30.31,NNW,338,0.4,2.9,67,0.00,,,0.00,WUHU216HW,2013-01-10 13:58:00,
2013-01-10 09:03:00,42.3,32.5,30.31,NW,315,1.6,2.5,68,0.00,,,0.00,WUHU216HW,2013-01-10 14:03:00,
2013-01-10 09:08:00,42.8,32.7,30.31,West,270,1.8,2.7,67,0.00,,,0.00,WUHU216HW,2013-01-10 14:08:00,
2013-01-10 09:13:00,43.4,32.8,30.32,NNW,338,1.6,2.7,66,0.00,,,0.00,WUHU216HW,2013-01-10 14:13:00,
2013-01-10 09:18:00,43.7,32.8,30.32,NW,315,2.5,3.1,65,0.00,,,0.00,WUHU216HW,2013-01-10 14:18:00,
2013-01-10 09:23:00,44.1,32.7,30.32,WNW,293,1.1,3.1,64,0.00,,,0.00,WUHU216HW,2013-01-10 14:23:00,
2013-01-10 09:28:00,44.5,32.7,30.32,NNW,338,2.7,3.6,63,0.00,,,0.00,WUHU216HW,2013-01-10 14:28:00,
2013-01-10 09:33:00,44.8,32.6,30.32,West,270,1.1,4.7,62,0.00,,,0.00,WUHU216HW,2013-01-10 14:33:00,
2013-01-10 09:38:00,45.2,33.0,30.32,East,90,1.3,4.7,62,0.00,,,0.00,WUHU216HW,2013-01-10 14:38:00,
2013-01-10 09:43:00,45.4,32.7,30.32,NW,315,3.4,3.4,61,0.00,,,0.00,WUHU216HW,2013-01-10 14:43:00,
2013-01-10 09:48:00,45.7,32.7,30.33,East,90,2.5,4.9,60,0.00,,,0.00,WUHU216HW,2013-01-10 14:48:00,
2013-01-10 09:53:00,45.7,32.2,30.33,NW,315,1.3,4.9,59,0.00,,,0.00,WUHU216HW,2013-01-10 14:53:00,
2013-01-10 09:58:00,45.9,32.4,30.33,NW,315,1.1,3.4,59,0.00,,,0.00,WUHU216HW,2013-01-10 14:58:00,
2013-01-10 10:03:00,45.9,32.4,30.33,NNW,338,1.1,5.6,59,0.00,,,0.00,WUHU216HW,2013-01-10 15:03:00,
2013-01-10 10:08:00,46.1,32.5,30.33,NNW,338,3.1,5.6,59,0.00,,,0.00,WUHU216HW,2013-01-10 15:08:00,
2013-01-10 10:13:00,46.1,32.5,30.33,NNW,338,1.8,3.8,59,0.00,,,0.00,WUHU216HW,2013-01-10 15:13:00,
2013-01-10 10:18:00,46.4,32.9,30.33,West,270,5.4,5.4,59,0.00,,,0.00,WUHU216HW,2013-01-10 15:18:00,
2013-01-10 10:23:00,46.4,32.4,30.34,East,90,3.1,5.4,58,0.00,,,0.00,WUHU216HW,2013-01-10 15:23:00,
2013-01-10 10:28:00,46.6,32.6,30.33,WNW,293,2.0,4.0,58,0.00,,,0.00,WUHU216HW,2013-01-10 15:28:00,
2013-01-10 10:33:00,46.8,32.3,30.34,NNW,338,3.4,5.8,57,0.00,,,0.00,WUHU216HW,2013-01-10 15:33:00,
2013-01-10 10:38:00,47.0,32.5,30.33,NNW,338,1.1,5.8,57,0.00,,,0.00,WUHU216HW,2013-01-10 15:38:00,
2013-01-10 10:43:00,47.2,33.1,30.34,NNW,338,0.4,4.7,58,0.00,,,0.00,WUHU216HW,2013-01-10 15:43:00,
2013-01-10 10:48:00,47.3,32.9,30.34,WNW,293,1.6,2.0,57,0.00,,,0.00,WUHU216HW,2013-01-10 15:48:00,
2013-01-10 10:53:00,47.7,33.2,30.33,WNW,293,0.9,2.9,57,0.00,,,0.00,WUHU216HW,2013-01-10 15:53:00,
2013-01-10 10:58:00,48.1,33.5,30.32,SSE,158,0.4,2.9,57,0.00,,,0.00,WUHU216HW,2013-01-10 15:58:00,
2013-01-10 11:03:00,48.2,33.2,30.32,NNE,23,2.0,2.0,56,0.00,,,0.00,WUHU216HW,2013-01-10 16:03:00,
2013-01-10 11:08:00,48.6,33.6,30.32,NNE,23,1.8,4.0,56,0.00,,,0.00,WUHU216HW,2013-01-10 16:08:00,
2013-01-10 11:13:00,48.6,32.7,30.32,NNE,23,0.7,4.0,54,0.00,,,0.00,WUHU216HW,2013-01-10 16:13:00,
2013-01-10 11:18:00,49.0,32.9,30.31,NNW,338,4.0,4.0,54,0.00,,,0.00,WUHU216HW,2013-01-10 16:18:00,
2013-01-10 11:23:00,49.1,33.7,30.31,NNE,23,2.2,4.0,55,0.00,,,0.00,WUHU216HW,2013-01-10 16:23:00,
2013-01-10 11:28:00,49.7,33.7,30.31,North,0,3.4,3.4,54,0.00,,,0.00,WUHU216HW,2013-01-10 16:28:00,
2013-01-10 11:33:00,50.0,34.0,30.31,NNE,23,2.9,3.6,54,0.00,,,0.00,WUHU216HW,2013-01-10 16:33:00,
2013-01-10 11:38:00,50.4,34.4,30.31,WNW,293,2.0,3.8,54,0.00,,,0.00,WUHU216HW,2013-01-10 16:38:00,
2013-01-10 11:43:00,50.8,33.8,30.30,North,0,4.0,4.0,52,0.00,,,0.00,WUHU216HW,2013-01-10 16:43:00,
2013-01-10 11:48:00,50.9,34.4,30.30,NNE,23,0.9,4.0,53,0.00,,,0.00,WUHU216HW,2013-01-10 16:48:00,
2013-01-10 11:53:00,51.1,33.7,30.29,NW,315,4.3,4.3,51,0.00,,,0.00,WUHU216HW,2013-01-10 16:53:00,
2013-01-10 11:58:00,51.3,34.3,30.29,North,0,1.1,4.3,52,0.00,,,0.00,WUHU216HW,2013-01-10 16:58:00,
2013-01-10 12:03:00,52.0,34.9,30.29,NNW,338,1.8,4.0,52,0.00,,,0.00,WUHU216HW,2013-01-10 17:03:00,
2013-01-10 12:08:00,52.2,34.7,30.29,WNW,293,2.0,4.0,51,0.00,,,0.00,WUHU216HW,2013-01-10 17:08:00,
2013-01-10 12:13:00,52.4,34.7,30.29,NW,315,2.0,4.5,51,0.00,,,0.00,WUHU216HW,2013-01-10 17:13:00,
2013-01-10 12:18:00,52.6,34.5,30.29,WNW,293,1.6,4.5,50,0.00,,,0.00,WUHU216HW,2013-01-10 17:18:00,
2013-01-10 12:23:00,52.7,34.7,30.28,NE,45,1.1,2.9,50,0.00,,,0.00,WUHU216HW,2013-01-10 17:23:00,
2013-01-10 12:28:00,53.5,35.7,30.28,ENE,68,1.8,2.9,51,0.01,,,0.01,WUHU216HW,2013-01-10 17:28:00,
2013-01-10 12:33:00,53.8,35.7,30.27,NNW,338,1.1,5.6,50,0.01,,,0.01,WUHU216HW,2013-01-10 17:33:00,
2013-01-10 12:38:00,54.2,35.9,30.27,North,0,2.5,5.6,50,0.01,,,0.01,WUHU216HW,2013-01-10 17:38:00,
2013-01-10 12:43:00,54.4,36.1,30.27,West,270,0.4,2.5,50,0.01,,,0.01,WUHU216HW,2013-01-10 17:43:00,
2013-01-10 12:48:00,54.4,35.6,30.27,NW,315,2.5,2.7,49,0.01,,,0.01,WUHU216HW,2013-01-10 17:48:00,
2013-01-10 12:53:00,54.2,34.3,30.27,NNE,23,2.0,2.7,47,0.01,,,0.01,WUHU216HW,2013-01-10 17:53:00,
2013-01-10 12:58:00,54.2,35.4,30.27,West,270,1.6,2.9,49,0.01,,,0.01,WUHU216HW,2013-01-10 17:58:00,
2013-01-10 13:03:00,54.4,35.0,30.27,NNW,338,0.9,2.9,48,0.01,,,0.01,WUHU216HW,2013-01-10 18:03:00,
2013-01-10 13:08:00,54.4,33.8,30.27,NE,45,1.6,2.5,46,0.01,,,0.01,WUHU216HW,2013-01-10 18:08:00,
2013-01-10 13:13:00,54.5,35.7,30.27,NNE,23,0.4,2.5,49,0.01,,,0.01,WUHU216HW,2013-01-10 18:13:00,
2013-01-10 13:18:00,54.7,36.5,30.26,SSW,203,0.7,2.2,50,0.01,,,0.01,WUHU216HW,2013-01-10 18:18:00,
2013-01-10 13:23:00,54.9,35.5,30.27,WNW,293,1.8,2.2,48,0.00,,,0.01,WUHU216HW,2013-01-10 18:23:00,
2013-01-10 13:28:00,55.1,36.2,30.27,North,0,1.3,3.1,49,0.00,,,0.01,WUHU216HW,2013-01-10 18:28:00,
2013-01-10 13:33:00,55.4,36.6,30.27,NE,45,3.4,3.4,49,0.00,,,0.01,WUHU216HW,2013-01-10 18:33:00,
2013-01-10 13:38:00,55.8,36.9,30.27,WNW,293,0.4,3.4,49,0.00,,,0.01,WUHU216HW,2013-01-10 18:38:00,
2013-01-10 13:43:00,55.4,34.8,30.26,WSW,248,4.0,4.7,46,0.00,,,0.01,WUHU216HW,2013-01-10 18:43:00,
2013-01-10 13:48:00,54.9,34.4,30.26,NNE,23,0.9,4.7,46,0.00,,,0.01,WUHU216HW,2013-01-10 18:48:00,
2013-01-10 13:53:00,54.9,34.9,30.26,North,0,0.7,3.8,47,0.00,,,0.01,WUHU216HW,2013-01-10 18:53:00,
2013-01-10 13:59:00,55.1,35.1,30.26,NE,45,0.2,3.4,47,0.00,,,0.01,WUHU216HW,2013-01-10 18:59:00,
2013-01-10 14:04:00,55.3,35.3,30.26,North,0,0.7,2.5,47,0.00,,,0.01,WUHU216HW,2013-01-10 19:04:00,
2013-01-10 14:08:00,55.1,34.6,30.27,NNW,338,0.4,2.5,46,0.00,,,0.01,WUHU216HW,2013-01-10 19:08:00,
2013-01-10 14:13:00,55.1,34.6,30.26,NNE,23,1.6,2.5,46,0.00,,,0.01,WUHU216HW,2013-01-10 19:13:00,
2013-01-10 14:18:00,55.3,34.7,30.26,NW,315,2.5,2.5,46,0.00,,,0.01,WUHU216HW,2013-01-10 19:18:00,
2013-01-10 14:23:00,55.1,34.6,30.26,NNE,23,5.4,5.4,46,0.00,,,0.01,WUHU216HW,2013-01-10 19:23:00,
2013-01-10 14:29:00,55.1,33.9,30.26,North,0,2.7,5.4,45,0.00,,,0.01,WUHU216HW,2013-01-10 19:29:00,
2013-01-10 14:34:00,54.9,34.4,30.26,WSW,248,1.6,4.3,46,0.00,,,0.01,WUHU216HW,2013-01-10 19:34:00,
2013-01-10 14:39:00,54.7,33.7,30.26,WSW,248,1.8,2.9,45,0.00,,,0.01,WUHU216HW,2013-01-10 19:39:00,
2013-01-10 14:44:00,54.7,33.7,30.26,NW,315,3.4,3.4,45,0.00,,,0.01,WUHU216HW,2013-01-10 19:44:00,
2013-01-10 14:49:00,54.7,34.2,30.26,NW,315,1.8,3.4,46,0.00,,,0.01,WUHU216HW,2013-01-10 19:49:00,
2013-01-10 14:54:00,55.1,34.6,30.26,ENE,68,0.9,4.5,46,0.00,,,0.01,WUHU216HW,2013-01-10 19:54:00,
2013-01-10 14:59:00,55.1,34.6,30.26,NNW,338,1.1,4.5,46,0.00,,,0.01,WUHU216HW,2013-01-10 19:59:00,
2013-01-10 15:04:00,55.1,34.6,30.26,SW,225,1.3,2.2,46,0.00,,,0.01,WUHU216HW,2013-01-10 20:04:00,
2013-01-10 15:09:00,55.1,34.6,30.26,NNE,23,1.6,1.6,46,0.00,,,0.01,WUHU216HW,2013-01-10 20:09:00,
2013-01-10 15:14:00,55.1,34.6,30.26,ENE,68,2.0,2.0,46,0.00,,,0.01,WUHU216HW,2013-01-10 20:14:00,
2013-01-10 15:19:00,55.1,35.1,30.26,NE,45,1.8,2.5,47,0.00,,,0.01,WUHU216HW,2013-01-10 20:19:00,
2013-01-10 15:24:00,54.7,35.9,30.26,SSE,158,1.8,2.5,49,0.00,,,0.01,WUHU216HW,2013-01-10 20:24:00,
2013-01-10 15:29:00,54.5,35.7,30.26,SSE,158,1.6,1.8,49,0.00,,,0.01,WUHU216HW,2013-01-10 20:29:00,
2013-01-10 15:34:00,53.5,34.7,30.26,SSE,158,2.0,2.5,49,0.00,,,0.01,WUHU216HW,2013-01-10 20:34:00,
2013-01-10 15:39:00,52.6,33.9,30.26,East,90,0.9,2.5,49,0.00,,,0.01,WUHU216HW,2013-01-10 20:39:00,
2013-01-10 15:44:00,51.8,33.8,30.26,East,90,1.3,4.0,50,0.00,,,0.01,WUHU216HW,2013-01-10 20:44:00,
2013-01-10 15:49:00,51.1,33.7,30.26,ENE,68,1.6,4.0,51,0.00,,,0.01,WUHU216HW,2013-01-10 20:49:00,
2013-01-10 15:54:00,50.8,33.8,30.26,ESE,113,0.9,2.5,52,0.00,,,0.01,WUHU216HW,2013-01-10 20:54:00,
2013-01-10 15:59:00,50.6,34.0,30.26,East,90,0.9,2.5,53,0.00,,,0.01,WUHU216HW,2013-01-10 20:59:00,
2013-01-10 16:04:00,50.4,33.9,30.26,NE,45,1.8,1.8,53,0.00,,,0.01,WUHU216HW,2013-01-10 21:04:00,
2013-01-10 16:09:00,50.0,33.6,30.26,NE,45,0.9,2.2,53,0.00,,,0.01,WUHU216HW,2013-01-10 21:09:00,
2013-01-10 16:14:00,49.7,33.2,30.26,SSW,203,1.1,2.2,53,0.00,,,0.01,WUHU216HW,2013-01-10 21:14:00,
2013-01-10 16:19:00,49.5,33.0,30.26,ESE,113,1.3,2.9,53,0.00,,,0.01,WUHU216HW,2013-01-10 21:19:00,
2013-01-10 16:24:00,49.3,33.3,30.27,East,90,0.0,2.9,54,0.00,,,0.01,WUHU216HW,2013-01-10 21:24:00,
2013-01-10 16:29:00,49.0,32.9,30.26,East,90,0.4,1.1,54,0.00,,,0.01,WUHU216HW,2013-01-10 21:29:00,
2013-01-10 16:34:00,48.6,32.7,30.27,ENE,68,0.2,1.1,54,0.00,,,0.01,WUHU216HW,2013-01-10 21:34:00,
2013-01-10 16:39:00,48.2,32.3,30.26,ESE,113,1.1,1.1,54,0.00,,,0.01,WUHU216HW,2013-01-10 21:39:00,
2013-01-10 16:45:00,47.9,32.4,30.26,East,90,0.2,1.1,55,0.00,,,0.01,WUHU216HW,2013-01-10 21:45:00,
2013-01-10 16:50:00,47.3,31.9,30.26,ESE,113,0.4,1.1,55,0.00,,,0.01,WUHU216HW,2013-01-10 21:50:00,
2013-01-10 16:55:00,46.8,31.9,30.26,ENE,68,0.7,1.1,56,0.00,,,0.01,WUHU216HW,2013-01-10 21:55:00,
2013-01-10 17:00:00,46.4,31.5,30.26,East,90,0.4,0.9,56,0.00,,,0.01,WUHU216HW,2013-01-10 22:00:00,
2013-01-10 17:05:00,46.3,31.3,30.26,ESE,113,0.0,1.1,56,0.00,,,0.01,WUHU216HW,2013-01-10 22:05:00,
2013-01-10 17:10:00,45.9,31.5,30.26,ESE,113,0.0,1.1,57,0.00,,,0.01,WUHU216HW,2013-01-10 22:10:00,
2013-01-10 17:15:00,45.7,31.3,30.26,East,90,0.4,0.4,57,0.00,,,0.01,WUHU216HW,2013-01-10 22:15:00,
2013-01-10 17:20:00,45.4,31.0,30.26,East,90,0.0,0.4,57,0.00,,,0.01,WUHU216HW,2013-01-10 22:20:00,
2013-01-10 17:25:00,45.2,30.8,30.26,ENE,68,0.0,0.4,57,0.00,,,0.01,WUHU216HW,2013-01-10 22:25:00,
2013-01-10 17:26:00,45.0,30.7,30.26,ENE,68,0.0,0.0,57,0.00,,,0.01,WUHU216HW,2013-01-10 22:26:00,
2013-01-10 17:28:00,45.0,30.7,30.26,ENE,68,0.0,0.0,57,0.00,,,0.01,WUHU216HW,2013-01-10 22:28:00,
2013-01-10 17:33:00,44.8,31.0,30.26,SSE,158,0.2,0.4,58,0.00,,,0.01,WUHU216HW,2013-01-10 22:33:00,
2013-01-10 17:38:00,44.6,30.8,30.26,East,90,0.2,0.4,58,0.00,,,0.01,WUHU216HW,2013-01-10 22:38:00,
2013-01-10 17:43:00,44.5,30.6,30.25,ENE,68,0.4,0.4,58,0.00,,,0.01,WUHU216HW,2013-01-10 22:43:00,
2013-01-10 17:48:00,44.3,30.9,30.25,SSW,203,0.0,0.4,59,0.00,,,0.01,WUHU216HW,2013-01-10 22:48:00,
2013-01-10 17:53:00,44.3,30.9,30.25,SSW,203,0.4,0.4,59,0.00,,,0.01,WUHU216HW,2013-01-10 22:53:00,
2013-01-10 17:58:00,44.1,30.7,30.25,SSW,203,0.4,0.4,59,0.00,,,0.01,WUHU216HW,2013-01-10 22:58:00,
2013-01-10 18:03:00,44.1,30.7,30.25,SSW,203,0.0,0.4,59,0.00,,,0.01,WUHU216HW,2013-01-10 23:03:00,
2013-01-10 18:08:00,43.9,31.0,30.25,SSW,203,0.0,0.4,60,0.00,,,0.01,WUHU216HW,2013-01-10 23:08:00,
2013-01-10 18:13:00,43.7,30.8,30.26,South,180,0.0,0.4,60,0.00,,,0.01,WUHU216HW,2013-01-10 23:13:00,
2013-01-10 18:18:00,43.6,30.6,30.26,SE,135,0.4,0.4,60,0.00,,,0.01,WUHU216HW,2013-01-10 23:18:00,
2013-01-10 18:23:00,43.4,30.4,30.26,SE,135,0.0,0.4,60,0.00,,,0.01,WUHU216HW,2013-01-10 23:23:00,
2013-01-10 18:28:00,43.2,30.6,30.26,NE,45,0.0,2.5,61,0.00,,,0.01,WUHU216HW,2013-01-10 23:28:00,
2013-01-10 18:33:00,43.2,30.6,30.26,NNE,23,0.0,2.5,61,0.00,,,0.01,WUHU216HW,2013-01-10 23:33:00,
2013-01-10 18:38:00,43.2,30.6,30.26,SE,135,0.4,0.7,61,0.00,,,0.01,WUHU216HW,2013-01-10 23:38:00,
2013-01-10 18:43:00,43.0,30.9,30.27,ESE,113,0.0,0.7,62,0.00,,,0.01,WUHU216HW,2013-01-10 23:43:00,
2013-01-10 18:48:00,43.0,30.9,30.27,ESE,113,0.0,0.2,62,0.00,,,0.01,WUHU216HW,2013-01-10 23:48:00,
2013-01-10 18:53:00,42.8,30.7,30.27,SE,135,0.0,0.4,62,0.00,,,0.01,WUHU216HW,2013-01-10 23:53:00,
2013-01-10 18:58:00,42.8,30.7,30.27,SE,135,0.0,0.4,62,0.00,,,0.01,WUHU216HW,2013-01-10 23:58:00,
2013-01-10 19:03:00,42.7,30.9,30.27,SE,135,0.0,0.0,63,0.00,,,0.01,WUHU216HW,2013-01-11 00:03:00,
2013-01-10 19:08:00,42.7,30.9,30.26,East,90,0.0,0.0,63,0.00,,,0.01,WUHU216HW,2013-01-11 00:08:00,
2013-01-10 19:13:00,42.7,30.9,30.26,East,90,0.0,0.0,63,0.00,,,0.01,WUHU216HW,2013-01-11 00:13:00,
2013-01-10 19:18:00,42.7,30.9,30.27,SW,225,0.0,0.7,63,0.00,,,0.01,WUHU216HW,2013-01-11 00:18:00,
2013-01-10 19:23:00,42.7,30.9,30.27,North,0,0.4,0.7,63,0.00,,,0.01,WUHU216HW,2013-01-11 00:23:00,
2013-01-10 19:28:00,42.8,31.1,30.27,SW,225,0.2,0.4,63,0.00,,,0.01,WUHU216HW,2013-01-11 00:28:00,
2013-01-10 19:33:00,42.8,31.1,30.27,ENE,68,0.4,1.1,63,0.00,,,0.01,WUHU216HW,2013-01-11 00:33:00,
2013-01-10 19:38:00,42.8,31.1,30.27,ESE,113,0.0,1.1,63,0.00,,,0.01,WUHU216HW,2013-01-11 00:38:00,
2013-01-10 19:43:00,43.0,31.2,30.28,North,0,0.0,1.1,63,0.00,,,0.01,WUHU216HW,2013-01-11 00:43:00,
2013-01-10 19:48:00,43.2,31.4,30.27,NNE,23,0.2,0.7,63,0.00,,,0.01,WUHU216HW,2013-01-11 00:48:00,
2013-01-10 19:50:00,43.2,31.4,30.27,NNE,23,0.0,0.4,63,0.00,,,0.01,WUHU216HW,2013-01-11 00:50:00,
2013-01-10 19:53:00,43.2,31.4,30.27,East,90,0.4,1.1,63,0.00,,,0.01,WUHU216HW,2013-01-11 00:53:00,
2013-01-10 19:58:00,43.2,31.4,30.26,SE,135,0.0,1.1,63,0.00,,,0.01,WUHU216HW,2013-01-11 00:58:00,
2013-01-10 20:03:00,43.2,31.4,30.26,ESE,113,0.0,0.7,63,0.00,,,0.01,WUHU216HW,2013-01-11 01:03:00,
2013-01-10 20:08:00,43.0,31.2,30.27,ESE,113,0.0,0.2,63,0.00,,,0.01,WUHU216HW,2013-01-11 01:08:00,
2013-01-10 20:14:00,42.8,31.1,30.27,ESE,113,0.4,0.4,63,0.00,,,0.01,WUHU216HW,2013-01-11 01:14:00,
2013-01-10 20:19:00,42.8,31.1,30.27,East,90,0.4,0.4,63,0.00,,,0.01,WUHU216HW,2013-01-11 01:19:00,
2013-01-10 20:24:00,42.8,31.5,30.26,ENE,68,0.4,0.4,64,0.00,,,0.01,WUHU216HW,2013-01-11 01:24:00,
2013-01-10 20:29:00,42.7,31.3,30.27,ENE,68,0.0,0.4,64,0.00,,,0.01,WUHU216HW,2013-01-11 01:29:00,
2013-01-10 20:34:00,42.5,31.2,30.26,ENE,68,0.4,0.4,64,0.00,,,0.01,WUHU216HW,2013-01-11 01:34:00,
2013-01-10 20:39:00,42.3,31.0,30.27,ENE,68,0.0,1.8,64,0.00,,,0.01,WUHU216HW,2013-01-11 01:39:00,
2013-01-10 20:44:00,42.1,30.8,30.26,North,0,0.0,1.8,64,0.00,,,0.01,WUHU216HW,2013-01-11 01:44:00,
2013-01-10 20:49:00,42.1,30.8,30.28,North,0,0.0,0.4,64,0.00,,,0.01,WUHU216HW,2013-01-11 01:49:00,
2013-01-10 20:54:00,41.8,30.9,30.26,ENE,68,0.4,0.7,65,0.00,,,0.01,WUHU216HW,2013-01-11 01:54:00,
2013-01-10 20:59:00,41.8,30.9,30.27,SE,135,0.0,0.7,65,0.00,,,0.01,WUHU216HW,2013-01-11 01:59:00,
2013-01-10 21:04:00,41.6,30.7,30.27,SE,135,0.0,0.7,65,0.00,,,0.01,WUHU216HW,2013-01-11 02:04:00,
2013-01-10 21:09:00,41.6,30.7,30.27,ESE,113,0.0,0.2,65,0.00,,,0.01,WUHU216HW,2013-01-11 02:09:00,
2013-01-10 21:14:00,41.4,30.5,30.27,ESE,113,0.0,0.2,65,0.00,,,0.01,WUHU216HW,2013-01-11 02:14:00,
2013-01-10 21:19:00,41.4,30.9,30.27,ESE,113,0.0,0.0,66,0.00,,,0.01,WUHU216HW,2013-01-11 02:19:00,
2013-01-10 21:24:00,41.4,30.9,30.27,ESE,113,0.2,0.2,66,0.00,,,0.01,WUHU216HW,2013-01-11 02:24:00,
2013-01-10 21:29:00,41.2,30.7,30.27,East,90,0.0,0.2,66,0.00,,,0.01,WUHU216HW,2013-01-11 02:29:00,
2013-01-10 21:34:00,41.2,30.7,30.27,East,90,0.0,0.4,66,0.00,,,0.01,WUHU216HW,2013-01-11 02:34:00,
2013-01-10 21:39:00,41.0,30.9,30.27,East,90,0.0,0.4,67,0.00,,,0.01,WUHU216HW,2013-01-11 02:39:00,
2013-01-10 21:44:00,41.0,30.9,30.27,East,90,0.0,0.0,67,0.00,,,0.01,WUHU216HW,2013-01-11 02:44:00,
2013-01-10 21:49:00,41.0,30.9,30.27,East,90,0.0,0.0,67,0.00,,,0.01,WUHU216HW,2013-01-11 02:49:00,
2013-01-10 21:54:00,41.0,30.9,30.27,WSW,248,0.0,0.2,67,0.00,,,0.01,WUHU216HW,2013-01-11 02:54:00,
2013-01-10 21:59:00,41.0,30.9,30.27,WSW,248,0.0,0.2,67,0.00,,,0.01,WUHU216HW,2013-01-11 02:59:00,
2013-01-10 22:04:00,41.0,30.9,30.27,East,90,0.4,0.7,67,0.00,,,0.01,WUHU216HW,2013-01-11 03:04:00,
2013-01-10 22:09:00,41.0,30.9,30.27,East,90,0.0,0.7,67,0.00,,,0.01,WUHU216HW,2013-01-11 03:09:00,
2013-01-10 22:14:00,40.9,30.7,30.27,ENE,68,0.4,1.1,67,0.00,,,0.01,WUHU216HW,2013-01-11 03:14:00,
2013-01-10 22:19:00,40.7,30.5,30.27,SSE,158,0.0,1.1,67,0.00,,,0.01,WUHU216HW,2013-01-11 03:19:00,
2013-01-10 22:24:00,40.3,30.2,30.27,SSE,158,0.0,0.4,67,0.00,,,0.01,WUHU216HW,2013-01-11 03:24:00,
2013-01-10 22:29:00,40.1,30.0,30.27,SSE,158,0.0,0.0,67,0.00,,,0.01,WUHU216HW,2013-01-11 03:29:00,
2013-01-10 22:34:00,40.0,29.8,30.27,SSE,158,0.0,0.4,67,0.00,,,0.01,WUHU216HW,2013-01-11 03:34:00,
2013-01-10 22:39:00,39.8,29.6,30.26,SE,135,0.0,0.4,67,0.00,,,0.01,WUHU216HW,2013-01-11 03:39:00,
2013-01-10 22:44:00,39.6,29.4,30.26,East,90,0.0,0.4,67,0.00,,,0.01,WUHU216HW,2013-01-11 03:44:00,
2013-01-10 22:49:00,39.4,29.3,30.26,East,90,0.0,0.4,67,0.00,,,0.01,WUHU216HW,2013-01-11 03:49:00,
2013-01-10 22:54:00,39.2,29.5,30.25,ESE,113,0.0,0.0,68,0.00,,,0.01,WUHU216HW,2013-01-11 03:54:00,
2013-01-10 22:59:00,39.2,29.5,30.25,ESE,113,0.2,0.4,68,0.00,,,0.01,WUHU216HW,2013-01-11 03:59:00,
2013-01-10 23:04:00,39.1,29.4,30.25,SSE,158,0.0,0.4,68,0.00,,,0.01,WUHU216HW,2013-01-11 04:04:00,
2013-01-10 23:09:00,38.9,29.2,30.26,SSW,203,0.4,0.4,68,0.00,,,0.01,WUHU216HW,2013-01-11 04:09:00,
2013-01-10 23:15:00,38.7,29.3,30.26,SSW,203,0.7,0.7,69,0.00,,,0.01,WUHU216HW,2013-01-11 04:15:00,
2013-01-10 23:20:00,38.5,29.3,30.26,South,180,0.0,0.7,69,0.00,,,0.01,WUHU216HW,2013-01-11 04:20:00,
2013-01-10 23:25:00,38.5,29.6,30.26,South,180,0.4,0.7,70,0.00,,,0.01,WUHU216HW,2013-01-11 04:25:00,
2013-01-10 23:30:00,38.3,29.4,30.26,South,180,0.0,0.4,70,0.00,,,0.01,WUHU216HW,2013-01-11 04:30:00,
2013-01-10 23:35:00,38.3,29.8,30.26,South,180,0.0,0.4,71,0.00,,,0.01,WUHU216HW,2013-01-11 04:35:00,
2013-01-10 23:40:00,38.3,29.8,30.26,South,180,0.0,0.0,71,0.00,,,0.01,WUHU216HW,2013-01-11 04:40:00,
2013-01-10 23:45:00,38.3,29.8,30.25,South,180,0.0,0.0,71,0.00,,,0.01,WUHU216HW,2013-01-11 04:45:00,
2013-01-10 23:50:00,38.3,29.8,30.25,South,180,0.0,0.0,71,0.00,,,0.01,WUHU216HW,2013-01-11 04:50:00,
2013-01-10 23:55:00,38.3,29.8,30.25,South,180,0.0,0.0,71,0.00,,,0.01,WUHU216HW,2013-01-11 04:55:00,
2013-01-10 23:59:00,38.3,29.8,30.25,South,180,0.4,0.4,71,0.00,,,0.01,WUHU216HW,2013-01-11 04:59:00,